Change the Weather History Date:

Wednesday, October 27, 2010

  Actual Average Record
Temperature  
Mean Temperature 37 °F -  
Max Temperature 44 °F 53 °F 75 °F (2001)
Min Temperature 30 °F 32 °F 26 °F (1996)
Degree Days  
Heating Degree Days 28    
Moisture  
Dew Point 29 °F    
Average Humidity 74    
Maximum Humidity 100    
Minimum Humidity 46    
Precipitation  
Precipitation 0.00 in - - ()
Sea Level Pressure  
Sea Level Pressure 30.33 in    
Wind  
Wind Speed 6 mph (NW)    
Max Wind Speed 16 mph    
Max Gust Speed -    
Visibility 10 miles    
Events Snow    
Averages and records for this station are not official NWS values.
T = Trace of Precipitation, MM = Missing Value Source: NWS Daily Summary

Daily Weather History Graph

Daily Weather History Graph

Search for Another Location

Airport or City:

Trip Planner

Search our weather history database for the weather conditions in past years. The results will help you decide how hot, cold, wet, or windy it might be!

Date:

Astronomy

Oct. 27, 2010 Rise Set
Actual Time 7:50 AM MDT 6:30 PM MDT
Civil Twilight 7:22 AM MDT 6:58 PM MDT
Nautical Twilight 6:50 AM MDT 7:29 PM MDT
Astronomical Twilight 6:19 AM MDT 8:01 PM MDT
Moon 9:57 PM MDT (10/27) 12:27 PM MDT (10/27)
Length of Visible Light 11h 35m
Length of Day
10h 39m
Waning Gibbous, 79% of the Moon is Illuminated
Oct 27
Waning Gibbous
Oct 30
Last Quarter
Nov 5
New
Nov 13
First Quarter
Nov 21
Full

Hourly Weather History & Observations

Time (MDT) Temp. Windchill Dew Point Humidity Pressure Visibility Wind Dir Wind Speed Gust Speed Precip Events Conditions
12:35 AM 35.6 °F 28.0 °F 30.2 °F 81% 30.09 in 10.0 mi NW 10.4 mph - N/A   Overcast
12:55 AM 35.6 °F 31.7 °F 30.2 °F 81% 30.10 in 10.0 mi ENE 4.6 mph - N/A   Overcast
1:15 AM 35.6 °F 32.8 °F 30.2 °F 81% 30.11 in 10.0 mi NNW 3.5 mph - N/A   Overcast
1:35 AM 35.6 °F 29.9 °F 28.4 °F 75% 30.11 in 10.0 mi NNW 6.9 mph - N/A   Overcast
1:55 AM 35.6 °F 30.7 °F 28.4 °F 75% 30.12 in 10.0 mi North 5.8 mph - N/A   Scattered Clouds
2:15 AM 33.8 °F 25.8 °F 30.2 °F 87% 30.14 in 10.0 mi North 10.4 mph - N/A   Mostly Cloudy
2:35 AM 33.8 °F 24.8 °F 30.2 °F 87% 30.16 in 7.0 mi NW 12.7 mph - N/A   Overcast
2:55 AM 33.8 °F 23.5 °F 30.2 °F 87% 30.16 in 10.0 mi NNW 16.1 mph - N/A   Mostly Cloudy
3:15 AM 33.8 °F 26.4 °F 30.2 °F 87% 30.18 in 10.0 mi North 9.2 mph - N/A   Overcast
3:35 AM 32.0 °F 23.6 °F 30.2 °F 93% 30.19 in 4.0 mi North 10.4 mph - N/A   Mostly Cloudy
3:55 AM 32.0 °F 25.6 °F 30.2 °F 93% 30.20 in 10.0 mi North 6.9 mph - N/A   Overcast
4:15 AM 32.0 °F 24.8 °F 28.4 °F 87% 30.20 in 10.0 mi NNW 8.1 mph - N/A   Mostly Cloudy
4:35 AM 32.0 °F 25.6 °F 30.2 °F 93% 30.21 in 10.0 mi North 6.9 mph - N/A   Mostly Cloudy
4:55 AM 30.2 °F 25.4 °F 28.4 °F 93% 30.22 in 10.0 mi North 4.6 mph - N/A   Overcast
5:15 AM 32.0 °F 27.5 °F 30.2 °F 93% 30.23 in 10.0 mi North 4.6 mph - N/A   Overcast
5:35 AM 32.0 °F 28.7 °F 30.2 °F 93% 30.24 in 10.0 mi North 3.5 mph - N/A   Overcast
5:55 AM 33.8 °F 25.8 °F 30.2 °F 87% 30.25 in 10.0 mi North 10.4 mph - N/A   Overcast
6:15 AM 32.0 °F 24.8 °F 30.2 °F 93% 30.26 in 10.0 mi North 8.1 mph - N/A   Overcast
6:35 AM 32.0 °F 26.4 °F 30.2 °F 93% 30.28 in 10.0 mi NE 5.8 mph - N/A   Overcast
6:50 AM 32.0 °F 27.5 °F 32.0 °F 100% 30.28 in 8.0 mi Variable 4.6 mph - N/A Snow Light Snow Showers
6:55 AM 32.0 °F 26.4 °F 32.0 °F 100% 30.29 in 10.0 mi NNE 5.8 mph - N/A   Overcast
7:15 AM 32.0 °F 27.5 °F 32.0 °F 100% 30.29 in 10.0 mi NNE 4.6 mph - N/A   Overcast
7:35 AM 32.0 °F 27.5 °F 32.0 °F 100% 30.30 in 10.0 mi North 4.6 mph - N/A   Overcast
7:50 AM 32.0 °F 27.5 °F 32.0 °F 100% 30.31 in 10.0 mi Variable 4.6 mph - N/A   Overcast
7:55 AM 32.0 °F 28.7 °F 32.0 °F 100% 30.31 in 10.0 mi NNE 3.5 mph - N/A   Overcast
8:15 AM 32.0 °F - 32.0 °F 100% 30.32 in 10.0 mi Calm Calm - N/A   Overcast
8:35 AM 33.8 °F - 30.2 °F 87% 30.33 in 10.0 mi Calm Calm - N/A   Overcast
8:50 AM 33.8 °F - 30.2 °F 87% 30.35 in 15.0 mi Calm Calm - N/A   Mostly Cloudy
8:55 AM 33.8 °F - 30.2 °F 87% 30.35 in 10.0 mi Calm Calm - N/A   Mostly Cloudy
9:15 AM 35.6 °F - 32.0 °F 87% 30.36 in 10.0 mi Calm Calm - N/A   Mostly Cloudy
9:35 AM 35.6 °F 32.8 °F 30.2 °F 81% 30.38 in 10.0 mi East 3.5 mph - N/A   Overcast
9:55 AM 35.6 °F 31.7 °F 32.0 °F 87% 30.40 in 10.0 mi East 4.6 mph - N/A   Mostly Cloudy
10:15 AM 37.4 °F - 32.0 °F 81% 30.41 in 10.0 mi Calm Calm - N/A   Mostly Cloudy
10:35 AM 37.4 °F - 28.4 °F 70% 30.42 in 10.0 mi Calm Calm - N/A   Overcast
10:50 AM 37.4 °F 33.8 °F 30.2 °F 75% 30.42 in 15.0 mi Variable 4.6 mph - N/A   Mostly Cloudy
10:55 AM 37.4 °F - 30.2 °F 75% 30.42 in 10.0 mi Calm Calm - N/A   Overcast
11:15 AM 37.4 °F - 30.2 °F 75% 30.43 in 10.0 mi Calm Calm - N/A   Overcast
11:35 AM 37.4 °F 32.8 °F 30.2 °F 75% 30.44 in 10.0 mi SW 5.8 mph - N/A   Overcast
11:48 AM 39.2 °F 37.0 °F 30.2 °F 70% 30.44 in 15.0 mi South 3.5 mph - N/A   Mostly Cloudy
12:15 PM 39.2 °F 37.0 °F 30.2 °F 70% 30.44 in 10.0 mi SW 3.5 mph - N/A   Mostly Cloudy
12:35 PM 39.2 °F 35.9 °F 28.4 °F 65% 30.44 in 10.0 mi SW 4.6 mph - N/A   Partly Cloudy
12:47 PM 41.0 °F - 28.4 °F 61% 30.44 in 15.0 mi Calm Calm - N/A   Scattered Clouds
12:55 PM 41.0 °F - 26.6 °F 57% 30.44 in 10.0 mi Calm Calm - N/A   Clear
1:15 PM 41.0 °F - 28.4 °F 61% 30.43 in 10.0 mi Calm Calm - N/A   Mostly Cloudy
1:35 PM 42.8 °F 38.6 °F 28.4 °F 57% 30.43 in 10.0 mi West 6.9 mph - N/A   Mostly Cloudy
1:50 PM 42.8 °F 39.3 °F 28.4 °F 57% 30.43 in 10.0 mi Variable 5.8 mph - N/A   Mostly Cloudy
1:55 PM 42.8 °F 39.3 °F 28.4 °F 57% 30.43 in 10.0 mi SW 5.8 mph - N/A   Clear
2:15 PM 42.8 °F 39.3 °F 26.6 °F 53% 30.42 in 10.0 mi West 5.8 mph - N/A   Clear
2:47 PM 42.8 °F 40.1 °F 26.6 °F 53% 30.41 in 15.0 mi SW 4.6 mph - N/A   Scattered Clouds
2:55 PM 42.8 °F 38.6 °F 26.6 °F 53% 30.41 in 10.0 mi WNW 6.9 mph - N/A   Clear
3:15 PM 42.8 °F 39.3 °F 26.6 °F 53% 30.41 in 10.0 mi WNW 5.8 mph - N/A   Clear
3:35 PM 44.6 °F 41.4 °F 24.8 °F 46% 30.40 in 10.0 mi WNW 5.8 mph - N/A   Clear
3:47 PM 44.6 °F 40.7 °F 26.6 °F 49% 30.39 in 15.0 mi West 6.9 mph - N/A   Partly Cloudy
3:55 PM 44.6 °F 40.7 °F 26.6 °F 49% 30.39 in 10.0 mi West 6.9 mph - N/A   Clear
4:15 PM 44.6 °F 40.2 °F 26.6 °F 49% 30.40 in 10.0 mi West 8.1 mph - N/A   Clear
4:35 PM 44.6 °F 41.4 °F 26.6 °F 49% 30.41 in 10.0 mi WNW 5.8 mph - N/A   Clear
4:48 PM 44.6 °F 40.7 °F 24.8 °F 46% 30.41 in 10.0 mi West 6.9 mph - N/A   Partly Cloudy
4:55 PM 44.6 °F 40.7 °F 24.8 °F 46% 30.41 in 10.0 mi West 6.9 mph - N/A   Clear
5:15 PM 44.6 °F 43.1 °F 24.8 °F 46% 30.41 in 10.0 mi NW 3.5 mph - N/A   Clear
5:35 PM 44.6 °F 42.2 °F 24.8 °F 46% 30.41 in 10.0 mi NW 4.6 mph - N/A   Clear
5:50 PM 44.6 °F 42.2 °F 24.8 °F 46% 30.41 in 15.0 mi NW 4.6 mph - N/A   Partly Cloudy
6:15 PM 42.8 °F 40.1 °F 24.8 °F 49% 30.41 in 10.0 mi NNW 4.6 mph - N/A   Clear
6:35 PM 41.0 °F 38.0 °F 24.8 °F 53% 30.41 in 10.0 mi NNW 4.6 mph - N/A   Clear
6:55 PM 39.2 °F 35.9 °F 24.8 °F 56% 30.41 in 10.0 mi North 4.6 mph - N/A   Clear
6:57 PM 39.2 °F 35.9 °F 24.8 °F 56% 30.42 in 15.0 mi Variable 4.6 mph - N/A   Partly Cloudy
7:15 PM 39.2 °F 35.9 °F 26.6 °F 61% 30.42 in 10.0 mi North 4.6 mph - N/A   Clear
7:35 PM 37.4 °F 34.9 °F 28.4 °F 70% 30.42 in 10.0 mi NE 3.5 mph - N/A   Clear
7:55 PM 37.4 °F 33.8 °F 28.4 °F 70% 30.42 in 10.0 mi East 4.6 mph - N/A   Clear
7:56 PM 37.4 °F 33.8 °F 28.4 °F 70% 30.42 in 15.0 mi Variable 4.6 mph - N/A   Clear
8:15 PM 37.4 °F - 28.4 °F 70% 30.41 in 10.0 mi Calm Calm - N/A   Clear
8:35 PM 37.4 °F - 28.4 °F 70% 30.42 in 10.0 mi Calm Calm - N/A   Clear
8:47 PM 37.4 °F - 28.4 °F 70% 30.41 in 15.0 mi Calm Calm - N/A   Clear
8:55 PM 37.4 °F 34.9 °F 28.4 °F 70% 30.41 in 10.0 mi SE 3.5 mph - N/A   Clear
9:15 PM 35.6 °F - 30.2 °F 81% 30.41 in 10.0 mi Calm Calm - N/A   Clear
9:35 PM 33.8 °F - 30.2 °F 87% 30.41 in 10.0 mi Calm Calm - N/A   Clear
9:55 PM 33.8 °F - 28.4 °F 81% 30.41 in 10.0 mi Calm Calm - N/A   Clear
10:15 PM 35.6 °F 32.8 °F 30.2 °F 81% 30.41 in 10.0 mi NNE 3.5 mph - N/A   Clear
10:35 PM 35.6 °F - 30.2 °F 81% 30.42 in 10.0 mi Calm Calm - N/A   Clear
10:55 PM 33.8 °F 30.8 °F 28.4 °F 81% 30.42 in 10.0 mi East 3.5 mph - N/A   Clear
11:15 PM 33.8 °F - 28.4 °F 81% 30.42 in 10.0 mi Calm Calm - N/A   Clear
11:35 PM 32.0 °F - 26.6 °F 80% 30.43 in 10.0 mi Calm Calm - N/A   Clear
11:55 PM 32.0 °F 25.6 °F 26.6 °F 80% 30.43 in 10.0 mi SW 6.9 mph - N/A   Clear